Little Rock AFB, AR

2:45 PM CST on January 22, 2018 (GMT -0600)
Little Rock Air Force Base

Weather History for KLRF - June, 2013

Change the Weather History Date:

Monday, June 17, 2013

  Actual Average Record
Temperature  
Mean Temperature 78 °F -  
Max Temperature 87 °F 87 °F 98 °F (1998)
Min Temperature 70 °F 65 °F 54 °F (1974)
Cooling Degree Days 12    
Growing Degree Days 28 (Base 50)    
Moisture  
Dew Point 72 °F    
Average Humidity 82    
Maximum Humidity 100    
Minimum Humidity 59    
Precipitation  
Precipitation 0.12 in - - ()
Sea Level Pressure  
Sea Level Pressure 29.91 in    
Wind  
Wind Speed 4 mph (WSW)    
Max Wind Speed 13 mph    
Max Gust Speed 17 mph    
Visibility 10 miles    
Events Rain , Thunderstorm    
Averages and records for this station are not official NWS values.
T = Trace of Precipitation, MM = Missing Value Source: NWS Daily Summary

Daily Weather History Graph

Daily Weather History Graph

Search for Another Location

Airport or City:

Trip Planner

Search our weather history database for the weather conditions in past years. The results will help you decide how hot, cold, wet, or windy it might be!

Date:

Astronomy

Jun. 17, 2013 Rise Set
Actual Time 5:54 AM CDT 8:24 PM CDT
Civil Twilight 5:24 AM CDT 8:54 PM CDT
Nautical Twilight 4:48 AM CDT 9:31 PM CDT
Astronomical Twilight 4:07 AM CDT 10:11 PM CDT
Moon 2:15 PM CDT (6/17) 1:17 AM CDT (6/17)
Length of Visible Light 15h 29m
Length of Day
14h 30m
First Quarter, 60% of the Moon is Illuminated
Jun 17
First Quarter
Jun 23
Full
Jun 29
Last Quarter
Jul 8
New
Jul 15
First Quarter

Hourly Weather History & Observations

Time (CDT) Temp. Heat Index Dew Point Humidity Pressure Visibility Wind Dir Wind Speed Gust Speed Precip Events Conditions
12:58 AM 77.2 °F - 74.1 °F 90% 29.95 in 10.0 mi ESE 2.3 mph - N/A   Mostly Cloudy
1:16 AM 77.0 °F - 75.2 °F 94% 29.97 in 10.0 mi NW 2.3 mph - N/A   Light Drizzle
1:58 AM 76.5 °F - 75.6 °F 97% 29.97 in 9.0 mi SW 2.3 mph - 0.01 in Rain Light Rain
2:46 AM 77.0 °F - 75.2 °F 94% 29.95 in 10.0 mi East 1.2 mph - N/A   Mostly Cloudy
2:58 AM 76.1 °F - 75.0 °F 96% 29.95 in 10.0 mi SSE 4.6 mph - 0.01 in   Mostly Cloudy
3:23 AM 75.2 °F - 75.2 °F 100% 29.94 in 10.0 mi ESE 4.6 mph - N/A   Overcast
3:58 AM 74.8 °F - 72.5 °F 92% 29.92 in 10.0 mi South 4.6 mph - N/A   Overcast
4:58 AM 72.1 °F - 68.2 °F 87% 29.92 in 10.0 mi Calm Calm - N/A   Mostly Cloudy
5:58 AM 70.7 °F - 68.9 °F 94% 29.93 in 10.0 mi Calm Calm - N/A   Overcast
6:58 AM 73.8 °F - 68.5 °F 84% 29.93 in 10.0 mi SSW 5.8 mph - N/A   Partly Cloudy
7:58 AM 75.7 °F - 71.1 °F 85% 29.92 in 10.0 mi SSE 2.3 mph - N/A   Clear
8:58 AM 79.2 °F - 71.1 °F 76% 29.93 in 10.0 mi South 4.6 mph - N/A   Mostly Cloudy
9:58 AM 82.8 °F 87.4 °F 71.1 °F 68% 29.93 in 10.0 mi South 5.8 mph - N/A   Clear
10:58 AM 82.6 °F 87.8 °F 72.1 °F 71% 29.94 in 10.0 mi South 4.6 mph - N/A   Mostly Cloudy
11:53 AM 82.4 °F 88.2 °F 73.4 °F 74% 29.94 in 10.0 mi SW 12.7 mph - N/A   Mostly Cloudy
11:58 AM 82.2 °F 87.6 °F 72.9 °F 73% 29.94 in 10.0 mi SSW 12.7 mph - N/A   Mostly Cloudy
12:28 PM 82.4 °F 88.2 °F 73.4 °F 74% 29.92 in 10.0 mi WSW 9.2 mph - N/A   Scattered Clouds
12:58 PM 82.4 °F 88.2 °F 73.4 °F 74% 29.91 in 10.0 mi WSW 12.7 mph - N/A   Overcast
1:58 PM 84.9 °F 91.8 °F 73.4 °F 68% 29.88 in 10.0 mi WNW 5.8 mph - N/A   Partly Cloudy
2:58 PM 85.3 °F 89.4 °F 69.4 °F 59% 29.86 in 10.0 mi North 2.3 mph - N/A   Partly Cloudy
3:58 PM 84.2 °F 89.3 °F 71.4 °F 65% 29.86 in 10.0 mi WSW 3.5 mph - N/A   Scattered Clouds
4:04 PM 84.2 °F 89.6 °F 71.6 °F 66% 29.86 in 10.0 mi Calm Calm - N/A Rain Light Rain
4:16 PM 80.6 °F 84.6 °F 71.6 °F 74% 29.87 in 5.0 mi NNW 8.1 mph 17.3 mph N/A Rain , Thunderstorm Light Thunderstorms and Rain
4:24 PM 78.8 °F - 71.6 °F 78% 29.87 in 10.0 mi ENE 10.4 mph 17.3 mph N/A Thunderstorm Thunderstorm
4:37 PM 75.2 °F - 71.6 °F 89% 29.87 in 10.0 mi NE 3.5 mph - N/A Thunderstorm Mostly Cloudy
4:44 PM 75.2 °F - 71.6 °F 89% 29.87 in 10.0 mi NE 4.6 mph - N/A Rain Light Rain
4:58 PM 75.6 °F - 71.6 °F 87% 29.87 in 9.0 mi NE 4.6 mph - 0.04 in Rain Light Rain
5:00 PM 75.2 °F - 71.6 °F 89% 29.86 in 10.0 mi NE 4.6 mph - N/A   Partly Cloudy
5:58 PM 84.0 °F 89.9 °F 72.3 °F 68% 29.86 in 10.0 mi West 5.8 mph - 0.00 in   Clear
6:58 PM 84.0 °F 88.7 °F 70.5 °F 64% 29.87 in 10.0 mi WNW 5.8 mph - N/A   Clear
7:58 PM 80.6 °F 83.6 °F 69.3 °F 68% 29.87 in 10.0 mi NNW 4.6 mph - N/A   Clear
8:58 PM 75.7 °F - 69.3 °F 80% 29.88 in 10.0 mi NE 4.6 mph - N/A   Scattered Clouds
9:58 PM 74.5 °F - 68.7 °F 82% 29.89 in 10.0 mi ENE 2.3 mph - N/A   Partly Cloudy
10:15 PM 73.4 °F - 68.0 °F 83% 29.90 in 10.0 mi WNW 6.9 mph - N/A   Light Drizzle
10:25 PM 73.4 °F - 69.8 °F 88% 29.90 in 2.5 mi Variable 3.5 mph - N/A Rain Heavy Rain
10:35 PM 71.6 °F - 69.8 °F 94% 29.91 in 6.0 mi Variable 3.5 mph - N/A Rain Light Rain
10:40 PM 71.6 °F - 69.8 °F 94% 29.91 in 10.0 mi NW 8.1 mph - N/A   Mostly Cloudy
10:58 PM 72.3 °F - 70.3 °F 93% 29.91 in 10.0 mi West 3.5 mph - 0.06 in   Scattered Clouds
11:58 PM 72.0 °F - 69.6 °F 92% 29.90 in 10.0 mi Variable 2.3 mph - N/A   Partly Cloudy